DW7003 Weather Reports


time (UTC)temp
F
wind
direction
speed
knots
gust
knots
rain 1hr
in
rain 24hr
in
rain mn
in
humidity
%
barometer
mb
20260504194504 76 99 1.7 9.6 0.00 0.00 0.00 31 1010.1
20260504193002 76 136 0.0 7.8 0.00 0.00 0.00 32 1010.1
20260504191559 76 42 0.0 6.1 0.00 0.00 0.00 31 1010.4
20260504190107 75 115 0.0 9.6 0.00 0.00 0.00 35 1010.7
20260504184554 75 140 0.9 8.7 0.00 0.00 0.00 33 1010.9
20260504183058 74 126 1.7 9.6 0.00 0.00 0.00 32 1011.1
20260504181549 74 54 1.7 7.0 0.00 0.00 0.00 33 1011.3
20260504180122 73 130 0.0 9.6 0.00 0.00 0.00 36 1011.4
20260504174545 73 106 0.0 8.7 0.00 0.00 0.00 33 1011.6
20260504173043 73 141 0.0 10.4 0.00 0.00 0.00 36 1011.8
20260504171541 73 81 0.0 6.1 0.00 0.00 0.00 33 1012.0
20260504081558 47 125 0.0 0.0 0.00 0.00 0.00 63 1015.1
20260504044539 46 125 0.0 0.0 0.00 0.00 0.00 63 1014.2
20260504043043 46 125 0.0 0.0 0.00 0.00 0.00 63 1014.1
20260504041534 47 125 0.0 0.0 0.00 0.00 0.00 60 1014.0
20260504040028 48 125 0.0 0.0 0.00 0.00 0.00 61 1013.9
20260504034527 48 125 0.0 0.0 0.00 0.00 0.00 59 1013.7
20260504033026 48 125 0.0 0.0 0.00 0.00 0.00 55 1013.6
20260504031526 49 125 0.0 0.0 0.00 0.00 0.00 57 1013.6
20260504030024 50 125 0.0 0.0 0.00 0.00 0.00 52 1013.5
20260504024524 50 125 0.0 0.0 0.00 0.00 0.00 52 1013.5
20260504023023 50 125 0.0 0.0 0.00 0.00 0.00 52 1013.6
20260504021523 50 125 0.0 0.0 0.00 0.00 0.00 53 1013.5
20260504020022 50 125 0.0 0.0 0.00 0.00 0.00 55 1013.5
20260504014526 51 125 0.0 0.0 0.00 0.00 0.00 57 1013.5
20260504013021 51 125 0.0 0.0 0.00 0.00 0.00 55 1013.3
20260504011518 52 125 0.0 0.0 0.00 0.00 0.00 55 1013.1
20260504010016 53 125 0.0 0.0 0.00 0.00 0.00 53 1012.8
20260504004518 54 125 0.0 0.0 0.00 0.00 0.00 49 1012.6
20260504003016 55 125 0.0 0.0 0.00 0.00 0.00 47 1012.4
20260504001515 56 125 0.0 0.0 0.00 0.00 0.00 43 1012.2
20260504000015 57 125 0.0 0.0 0.00 0.00 0.00 40 1012.1
20260503234519 58 125 0.0 0.0 0.00 0.00 0.00 38 1012.0
20260503233013 58 125 0.0 0.0 0.00 0.00 0.00 36 1011.8
20260503231516 59 126 0.0 6.1 0.00 0.00 0.00 34 1011.8
20260503230015 59 86 0.0 1.7 0.00 0.00 0.00 34 1011.6
20260503224513 60 82 0.0 2.6 0.00 0.00 0.00 32 1011.6
20260503223013 60 330 0.0 1.7 0.00 0.00 0.00 33 1011.5
20260503221511 60 55 0.0 2.6 0.00 0.00 0.00 32 1011.4
20260503220011 60 44 0.0 2.6 0.00 0.00 0.00 32 1011.4
20260503214532 60 28 0.9 5.2 0.00 0.00 0.00 31 1011.5
20260503213010 60 86 0.0 5.2 0.00 0.00 0.00 32 1011.3
20260503211510 60 143 0.0 5.2 0.00 0.00 0.00 34 1011.3
20260503210010 60 9 0.0 7.8 0.00 0.00 0.00 34 1011.3
20260503204507 60 53 0.9 5.2 0.00 0.00 0.00 32 1011.2
20260503203007 60 292 0.0 7.0 0.00 0.00 0.00 32 1011.0
20260503201507 60 148 0.9 11.3 0.00 0.00 0.00 34 1011.2
20260503200006 60 40 0.0 3.5 0.00 0.00 0.00 34 1011.2